Regional Weather Roundup
Issued by NWS Newport/Morehead, NC

Current Version | Previous Version | Text Only | Print | Product List | Glossary On
Versions: 1 2 3 4 5 6 7 8 9 10 11 12 13 14 15 16 17 18 19 20 21 22 23 24 25 26 27 28 29 30 31 32 33 34 35 36 37 38 39 40 41 42 43 44 45 46 47 48 49 50
000
ASUS42 KMHX 270910
RWRMHX
WEATHER ROUNDUP FOR EASTERN NORTH CAROLINA
NATIONAL WEATHER SERVICE NEWPORT/MOREHEAD CITY NC
400 AM EST SAT DEC 27 2014

NOTE: "FAIR" INDICATES FEW OR NO CLOUDS BELOW 12,000 FEET
WITH NO SIGNIFICANT WEATHER AND/OR OBSTRUCTIONS TO VISIBILITY

NCZ015>017-031-032-045>047-102-103-271000-
NORTH COAST

CITY           SKY/WX    TMP DP  RH WIND       PRES   REMARKS
EDENTON          N/A     35  34  96 CALM      30.29F FOG
ELIZABETH CITY CLEAR     37  34  89 CALM      30.29S
KITTY HAWK     SUNNY     43  41  93 CALM      30.28F
MANTEO         FOG       36  36 100 CALM      30.29F VSB 3/4

$$

NCZ045>047-081-094-103-104-271000-
CENTRAL COAST

CITY           SKY/WX    TMP DP  RH WIND       PRES   REMARKS
FRISCO         PTCLDY    38  38 100 N5        30.30S
SWANQUARTER      N/A     36 N/A N/A CALM      30.27S

$$

NCZ095-097-098-100-101-271000-
SOUTHERN COAST

CITY           SKY/WX    TMP DP  RH WIND       PRES   REMARKS
BEAUFORT       CLEAR     36  35  96 CALM      30.30F
CEDAR ISLAND     N/A     45 N/A N/A W5        30.33S
JACKSONVILLE   CLEAR     35  34  96 CALM      30.30S FOG
PINEY ISLAND   SUNNY     49  41  74 W5        30.30S
WILMINGTON     CLEAR     36  34  92 CALM      30.29F


$$

NCZ011>013-027>030-043-044-078>080-089-090>093-098-271000-
COASTAL PLAIN

CITY           SKY/WX    TMP DP  RH WIND       PRES   REMARKS
AHOSKIE        CLEAR     31  30  96 CALM      30.29F
CLINTON        CLEAR     34  34 100 CALM      30.31F
ELIZABETHTOWN  CLEAR     33  33  99 CALM      30.30S
GOLDSBORO      PTCLDY    33  33  99 CALM      30.28F FOG
GREENVILLE     CLEAR     34  34 100 CALM      30.30S FOG
HAVELOCK       CLEAR     36  33  89 CALM      30.31S
KENANSVILLE    CLEAR     31  31 100 CALM      30.31F
KINSTON        CLEAR     32  32  99 CALM      30.31S
NEW BERN       PTCLDY    34  30  85 CALM      30.31F
RICHLANDS      CLEAR     30  28  93 CALM      30.30F
ROCKY MOUNT    CLEAR     34  32  92 CALM      30.28F
WASHINGTON     CLEAR     35  34  95 CALM      30.30S
WHITEVILLE     CLEAR     35  34  96 CALM      30.30R

$$

AMZ130-135-150-152-154-156-158-170-250-252-270-ANZ085-086-088-633-658-670-271000-
MARINE OBSERVATIONS

STATION/POSITION TIME  TEMP    WIND        PRES    WAVE   SWELL
                       AIR SEA DIR/SP/G            HT/PER HT/PER
                 (UTC) (F)     (DEG/KT/KT) (MB)    (FT/S) (FT/S)
CHESAPEAKE LIGHT 0800   47     230/ 10/ 11 1026.3
64 E VA BEACH    0900   51 52  240/  8/ 10 1025.0    2/12   2/12
DUCK             0900   48 51  230/  6/  7 1024.8
2 E DUCK         0900      50                N/A     2/12   2/12
10 NE DUCK       0900      50                N/A     2/13   2/13
OREGON INLET     0900   47 53  280/  2/  2 1025.8
13E OREGON INLT  0900      50                N/A     3/13   2/13
HATTERAS CG      0900   50 56  340/  5/  6 1026.1
DIAMOND BUOY     0900   56                 1025.8    2/12
17 S OCRACOKE    NOT AVBL
CAPE LOOKOUT     0900   52     360/  7/  7 1025.5
BEAUFORT LAB     0900   46 55   10/  3/  4 1024.8
30 SE NEW RIVER  0800   58 60  360/  4/  6 1026.1
5 SE WRIGHTSVLE  NOT AVBL
225 S CAPE HAT   0819   67 74   80/  6/ 10 1024.8    3/12   3/12
41 SE CHARLESTON 0900   64 74   20/ 12/ 14 1024.6    2/ 8   2/ 8

$$



USA.gov is the U.S. government's official web portal to all federal, state and local government web resources and services.